Location: Tel Aviv
(32.0670°N, 34.7670°E)
Time: 13:03:15
(UTC+03:00)

Explorer 11/Cluster Stage 4 - Pass Details

Date: 13 September 2024
Orbit: 464 x 1208 km, 28.8° (Epoch: 05 October)

Event Time Altitude Azimuth Distance (km) Brightness Sun altitude
Rises 10:52:36 0° 270° (W) 4,024 9.9 52.5°
Reaches altitude 10° 10:55:25 10° 268° (W) 3,107 9.5 52.9°
Maximum altitude 11:03:17 67° 188° (S) 1,295 9.1 54.0°
Drops below altitude 10° 11:10:57 10° 107° (ESE) 3,034 10.2 55.1°
Sets 11:13:40 0° 105° (ESE) 3,925 10.6 55.5°
